#timestamp,LO_Frequency,Hit,StdDev 
1608012015.3,286047002.3,N
1608012035.2,286046998.2,N
1608012055.0,286046998.2,N
1608012055.9,286046998.2,N
1608012075.7,286047001.1,N
1608012095.6,286047001.1,N
1608012115.4,286046999.5,N
1608012135.2,286047001.0,N
1608012155.1,286047000.3,N
1608012156.0,286047000.3,N
1608012175.8,286047002.6,N
1608012195.6,286047002.8,N
1608012215.5,286047002.2,N
1608012235.3,286047001.4,N
1608012255.1,286047003.8,N
1608012275.9,286047003.5,N
1608012295.7,286047004.1,N
1608012315.5,286047004.1,N
1608012335.4,286047003.4,N
1608012355.2,286047003.4,N
1608012375.0,286047005.6,N
1608012375.9,286047005.6,N
1608012395.8,286047007.3,Y
1608012415.6,286047006.0,P
1608012435.4,286047002.9,N
1608012455.3,286047005.8,P
1608012475.1,286047005.5,Y
1608012495.8,286047002.8,P
1608012515.7,286047001.7,N
1608012535.5,286047002.7,N
1608012555.3,286047004.2,Y
1608012575.2,286047000.2,P
1608012595.0,286047000.5,N
1608012595.9,286047000.5,N
1608012615.7,286046999.8,N
1608012635.6,286047002.8,N
1608012655.4,286047001.4,N
1608012675.2,286047001.4,N
1608012695.1,286047004.0,Y
1608012696.0,286047004.0,P
1608012715.8,286047001.9,N
1608012735.6,286047002.2,N
1608012755.5,286047002.3,N
1608012775.3,286047002.3,N
1608012795.1,286047002.6,Y
1608012815.9,286047001.1,P
1608012835.7,286047000.6,N
1608012855.5,286047001.2,N
1608012875.4,286046999.8,N
1608012895.2,286046999.7,N
1608012915.0,286047004.4,Y
1608012915.9,286047004.4,P
1608012935.8,286047004.4,N
1608012955.6,286047002.5,N
1608012975.4,286047001.8,N
1608012995.3,286047002.6,N
1608013015.1,286047001.7,N
1608013035.8,286047001.8,N
1608013055.7,286047003.5,N
1608013075.5,286047004.1,Y
1608013095.3,286047002.6,P
1608013115.2,286047000.1,P
1608013135.0,286047001.6,N
1608013135.9,286047001.6,N
1608013155.7,286047002.5,N
1608013175.6,286047002.6,N
1608013195.4,286047003.7,Y
1608013245.3,286046999.8,E
1608013255.2,286047000.3,N
1608013275.0,286047002.5,P
1608013275.9,286047002.5,N
1608013295.8,286047002.0,N
1608013315.6,286047004.0,Y
1608013335.4,286047000.6,P
1608013355.3,286047000.4,N
1608013375.1,286047000.7,N
1608013376.0,286047000.7,N
1608013395.8,286046998.5,Y
1608013415.7,286046999.6,P
1608013435.5,286046999.2,N
1608013455.3,286046996.9,P
1608013475.2,286046997.0,N
1608013495.9,286046999.4,N
1608013515.7,286046998.5,N
1608013535.5,286046999.3,N
1608013555.4,286046998.6,N
1608013575.2,286046998.9,N
1608013595.1,286046996.6,Y
1608013596.0,286046996.6,P
1608013615.8,286046998.7,N
1608013635.6,286047000.9,N
1608013655.5,286047000.0,N
1608013675.3,286047002.2,N
1608013695.1,286047002.7,N
1608013715.9,286047001.8,N
1608013735.7,286047002.6,N
1608013755.5,286047002.6,N
1608013775.4,286047002.2,N
1608013795.2,286046999.7,N
1608013815.0,286046999.9,N
1608013815.9,286046999.9,N
1608013835.8,286047002.3,N
1608013855.6,286047000.9,N
1608013875.4,286047000.9,N
1608013895.3,286047000.9,N
1608013915.1,286047002.8,N
1608013916.0,286047002.8,N
1608013935.8,286047002.8,N
1608013955.7,286047000.5,N
1608013975.5,286047002.3,N
1608013995.3,286047000.3,N
1608014015.2,286047000.9,N
1608014035.9,286047000.7,N
1608014055.7,286047000.7,N
1608014075.6,286047000.7,N
1608014095.4,286046998.6,N
1608014115.2,286047001.2,N
1608014135.0,286046998.3,N
1608014136.0,286046998.3,N
1608014155.8,286047000.2,N
1608014175.6,286047000.0,N
1608014195.5,286047000.0,N
1608014215.3,286047000.5,N
1608014235.1,286047001.2,N
1608014255.9,286047000.9,N
1608014275.7,286046998.6,N
1608014295.5,286046998.1,N
1608014315.3,286047001.2,N
1608014335.2,286046998.4,N
1608014355.0,286046998.6,N
1608014355.9,286046998.6,N
1608014375.7,286046998.3,N
1608014395.6,286046998.8,N
1608014415.4,286046999.2,N
1608014435.2,286046999.0,N
1608014455.1,286046999.0,N
1608014456.0,286046999.0,N
1608014475.8,286046998.1,N
1608014495.6,286046998.9,N
1608014515.5,286046998.9,N
1608014535.3,286046998.1,N
1608014555.1,286046999.0,N
1608014575.9,286046996.7,Y
1608014595.7,286047001.0,P
1608014615.6,286046998.3,N
1608014635.4,286046998.5,N
1608014655.2,286047000.4,N
1608014675.0,286046998.1,N
1608014676.0,286046998.1,N
1608014695.8,286047001.0,N
1608014715.6,286047000.0,N
1608014735.4,286047000.5,N
1608014755.3,286046999.9,N
1608014775.1,286046998.1,N
1608014795.8,286046998.3,N
1608014815.7,286046998.6,N
1608014835.5,286046998.4,N
1608014855.3,286046999.2,N
1608014875.2,286046999.1,N
1608014895.0,286046999.5,N
1608014895.9,286046999.5,N
1608014915.7,286046998.8,N
1608014935.6,286046999.1,N
1608014955.4,286046996.8,Y
1608014975.2,286046999.5,P
1608014995.1,286046997.0,P
1608014996.0,286046997.0,N
1608015015.8,286046997.0,N
1608015035.6,286046997.5,N
1608015055.5,286046997.6,N
1608015075.3,286046995.0,Y
1608015095.1,286046998.4,P
1608015115.9,286047001.2,P
1608015135.7,286046999.0,N
1608015155.5,286046999.5,N
1608015175.4,286046996.7,N
1608015195.2,286046997.2,N
1608015215.0,286046996.5,N
1608015215.9,286046996.5,N
1608015235.8,286046996.5,N
1608015255.6,286046997.2,N
1608015275.4,286046998.0,N
1608015295.3,286046997.4,N
1608015315.1,286046995.1,Y
1608015335.8,286046998.9,P
1608015355.7,286046998.7,N
1608015375.5,286046999.1,N
1608015395.3,286046996.7,Y
1608015415.2,286046998.2,P
1608015435.0,286046998.4,P
1608015435.9,286046998.4,P
1608015455.7,286046999.0,Y
1608015475.6,286047002.4,P
1608015495.4,286047000.8,N
1608015515.2,286047001.0,N
1608015535.1,286047000.0,N
1608015536.0,286047000.0,N
1608015555.8,286046999.8,N
1608015575.6,286047000.9,N
1608015595.5,286047001.0,N
